Tracking 30058 objects as of 9-Dec-2024
HD Live streaming from Space Station
objects crossing your sky now

STARLINK-6322

Track STARLINK-6322 now!
10-day predictions
STARLINK-6322 is classified as:


NORAD ID: 57337
Int'l Code: 2023-099K
Perigee: 565.3 km
Apogee: 567.2 km
Inclination: 43.0 °
Period: 95.8 minutes
Semi major axis: 6937 km
RCS: Unknown
Launch date: July 16, 2023
Source: United States (US)
Launch site: AIR FORCE EASTERN TEST RANGE (AFETR)
Your satellite tracking list
Your tracking list is empty




NASA's NSSDC Master Catalog

Two Line Element Set (TLE):
1 57337U 23099K   24344.30607805  .00000433  00000-0  47115-4 0  9996
2 57337  43.0022 203.5194 0001371 269.7948  90.2737 15.02535143 77617
Source of the keplerian elements: AFSPC